Showing default

ORBCOMM FM 104, 40090

Orbit data source: Space-Track

ORBCOMM FM 104, 40090 is a payload satellite owned by Orbcomm (US) in LEO that was launched on Mon, 14 Jul 2014 UTC via an FALCON 9 launch vehicle from the Air Force Eastern Test Range (AFETR). Payload-class satellites include a variety of spacecraft equipped with specific instruments for various scientific and technological missions. These include communications satellites like Starlink; space stations such as the ISS; scientific satellites like the Hubble; Earth observation satellites from companies like Planet Labs, Umbra, and HawkEye 360; GPS; miniature CubeSats for education and research; and military/defense satellites.

Loading next visibility...
Identifier
40090, 2014-040E
Orbit
LEO
Last TLE update
8 hours ago
Origin
Manufacturer
SNC Louisville
Mission
Non-operational Commercial Communications
Bus & Motor
SN-100A, Unknown motor
Mass
172 kg wet, 158 kg dry
Launch date (UTC)
2014-07-14 (11 years ago)
Launch vehicle
FALCON 9
Launch site
Air Force Eastern Test Range (AFETR)
Object type
Payload
Rocket body
Debris
Shape & HBR
Box + 1 Pan + 1 Ant, 13 m
Radar Cross Section
2.222 m², Medium (>0.1 m² and < 1m²)

Expand to show TLE details & history

TLE from 8 hours ago
0 ORBCOMM FM 104
1 40090U 14040E   25190.01385178  .00000249  00000-0  93089-4 0  9990
2 40090  47.0061 308.0364 0016841 302.2147  57.7105 14.56668186583907
Epoch: 2025-07-09T00:19Z
TLE epoch observation values (Epoch: 2025-07-09T00:19:56.793Z)
Latitude
-0.00003°
Longitude
15.84916°
Altitude
697.812 km
Speed
7.512 km/s
True Right ascension
20h 32m 08s
True Declination
0° 00' 00"
Sunlit
Object was in full shadow at epoch
Visualization orbit readout
Latitude
-24.31099°
Longitude
-140.87048°
Altitude
710.221 km
Speed
7.501 km/s
Apparent Right ascension
09h 12m 54s
Apparent Declination
-32° 26' 28"
Sunlit
Object is in daylight
Visualization observer readout
Local Sidereal Time
20:03:22
Azimuth
292.678° NW
Elevation
-74.141°
Doppler factor
1
Orbital elements
Apogee altitude
717.114 km
Perigee altitude
693.256 km
Semi-major axis
7,083.322 km
Eccentricity
0.00168
Inclination
47.0061°
RAAN
308.0364°
Arg. of periapsis
302.2147°
True anomaly
Unknown
Mean anomaly
57.7105°
Eccentric anomaly
Unknown
Mean motion
3.64072 °/min
Orbital period
98.88 mins
BSTAR
0.000093089
Loading maneuver chart data...
Loading SW <> Apogee altitude chart data...
Loading historical data...
Loading historical data...
Loading historical data...
Loading historical data...
Loading historical data...
Loading historical data...
Loading historical data...

ORBCOMM FM 104 Visibility forecast

Observer location: undefined°, undefined°

Span
Click to sort rows by Start time (UTC) header in descending order
Start Az.
Max El. time (UTC)
Max El. Az.
Max El.
End time (UTC)
End Az.
8 mins2025-07-09 10:21:48.584Z203.614° SW2025-07-09 10:25:48.584Z149.901° SSE29.359°2025-07-09 10:29:48.584Z80.707° E
8 mins2025-07-09 12:05:48.584Z257.134° W2025-07-09 12:09:48.584Z348.85° N42.123°2025-07-09 12:13:48.584Z57.474° ENE
7 mins2025-07-09 13:50:48.584Z299.54° NW2025-07-09 13:53:48.584Z354.879° N31.067°2025-07-09 13:57:48.584Z60.387° ENE
8 mins2025-07-09 15:34:48.584Z307.984° NW2025-07-09 15:37:48.584Z359.749° N36.708°2025-07-09 15:42:48.584Z91.495° ESE
8 mins2025-07-09 17:18:48.584Z286.007° WNW2025-07-09 17:21:48.584Z224.111° SW39.678°2025-07-09 17:26:48.584Z138.056° SSE
|